Weather History for Alliance, NE

Change the Weather History Date:

Monday, February 17, 2014

  Actual Average Record
Temperature  
Mean Temperature 39 °F 27 °F  
Max Temperature 50 °F 42 °F 70 °F (1943)
Min Temperature 27 °F 13 °F -30 °F (2006)
Degree Days  
Heating Degree Days 26 38  
Month to date heating degree days 851 666  
Since 1 July heating degree days 5071 5011  
Cooling Degree Days 0 0  
Month to date cooling degree days 0 0  
Year to date cooling degree days 0 0  
Moisture  
Dew Point 23 °F    
Average Humidity 58    
Maximum Humidity 85    
Minimum Humidity 31    
Precipitation  
Precipitation 0.00 in 0.01 in 0.42 in (1962)
Month to date precipitation 0.02 0.22  
Year to date precipitation 0.29 0.40  
Sea Level Pressure  
Sea Level Pressure 29.91 in    
Wind  
Wind Speed 15 mph (WSW)    
Max Wind Speed 36 mph    
Max Gust Speed 42 mph    
Visibility 10 miles    
Events      
T = Trace of Precipitation, MM = Missing Value Source: NWS Daily Summary

Daily Weather History Graph

Daily Weather History Graph

Search for Another Location

Airport:

Trip Planner

Search our weather history database for the weather conditions in past years. The results will help you decide how hot, cold, wet, or windy it might be!

Date:

Astronomy

Feb. 17, 2014 Rise Set
Actual Time 6:44 AM MST 5:26 PM MST
Civil Twilight 6:15 AM MST 5:55 PM MST
Nautical Twilight 5:43 AM MST 6:27 PM MST
Astronomical Twilight 5:10 AM MST 7:00 PM MST
Moon 8:27 PM MST 7:42 AM MST
Length of Visible Light 11h 39m
Length of Day
10h 42m
Waning Gibbous, 93% of the Moon is Illuminated
Feb 17
Waning Gibbous
Feb 22
Last Quarter
Mar 1
New
Mar 8
First Quarter
Mar 16
Full

Hourly Weather History & Observations

Time (MST) Temp. Windchill Dew Point Humidity Pressure Visibility Wind Dir Wind Speed Gust Speed Precip Events Conditions
12:00 AM 34.0 °F 23.4 °F 28.9 °F 82% 29.92 in 9.0 mi NW 17.3 mph 25.3 mph 0.00 in   Overcast
12:53 AM 34.0 °F 23.4 °F 27.0 °F 75% 29.94 in 10.0 mi West 17.3 mph - 0.00 in   Scattered Clouds
1:53 AM 30.9 °F 19.1 °F 26.1 °F 82% 29.94 in 10.0 mi West 18.4 mph - N/A   Clear
2:53 AM 30.0 °F 20.0 °F 26.1 °F 85% 29.95 in 10.0 mi West 12.7 mph - N/A   Clear
3:53 AM 28.9 °F 19.2 °F 24.1 °F 82% 29.95 in 10.0 mi West 11.5 mph - N/A   Clear
4:53 AM 28.0 °F 19.3 °F 25.0 °F 88% 29.98 in 10.0 mi West 9.2 mph - N/A   Clear
5:53 AM 28.9 °F 18.6 °F 24.1 °F 82% 30.00 in 10.0 mi West 12.7 mph - N/A   Clear
6:53 AM 28.0 °F 20.0 °F 21.9 °F 78% 30.01 in 10.0 mi West 8.1 mph - N/A   Clear
7:53 AM 30.9 °F 21.7 °F 23.0 °F 72% 30.02 in 10.0 mi West 11.5 mph - N/A   Clear
8:53 AM 37.0 °F 27.0 °F 23.0 °F 57% 30.01 in 10.0 mi West 18.4 mph - N/A   Clear
9:53 AM 43.0 °F 33.5 °F 21.9 °F 43% 29.99 in 10.0 mi WNW 24.2 mph 33.4 mph N/A   Clear
10:53 AM 46.0 °F 36.7 °F 21.0 °F 37% 29.98 in 10.0 mi WNW 29.9 mph 35.7 mph N/A   Clear
11:53 AM 48.9 °F - 19.0 °F 31% 29.94 in 10.0 mi West 34.5 mph 41.4 mph N/A   Clear
12:53 PM 48.9 °F - 21.0 °F 33% 29.90 in 10.0 mi West 23.0 mph 29.9 mph N/A   Clear
1:53 PM 50.0 °F - 21.9 °F 33% 29.88 in 10.0 mi West 23.0 mph 34.5 mph N/A   Clear
2:53 PM 50.0 °F - 21.9 °F 33% 29.86 in 10.0 mi West 21.9 mph 28.8 mph N/A   Clear
3:53 PM 46.9 °F - 24.1 °F 41% 29.85 in 10.0 mi WSW 9.2 mph - N/A   Clear
4:53 PM 39.9 °F 33.9 °F 26.1 °F 58% 29.86 in 10.0 mi SSW 9.2 mph - N/A   Clear
5:53 PM 36.0 °F 31.1 °F 25.0 °F 64% 29.86 in 10.0 mi SE 5.8 mph - N/A   Clear
6:53 PM 34.0 °F 29.8 °F 23.0 °F 64% 29.87 in 10.0 mi SE 4.6 mph - N/A   Clear
7:53 PM 30.0 °F 23.2 °F 21.9 °F 72% 29.86 in 10.0 mi South 6.9 mph - N/A   Clear
8:53 PM 28.0 °F 18.1 °F 23.0 °F 81% 29.85 in 10.0 mi SSE 11.5 mph - N/A   Clear
9:53 PM 33.1 °F 24.4 °F 24.1 °F 70% 29.79 in 10.0 mi South 11.5 mph - N/A   Clear
10:53 PM 30.0 °F 24.1 °F 21.9 °F 72% 29.78 in 10.0 mi SSW 5.8 mph - N/A   Clear
11:53 PM 33.1 °F 24.4 °F 21.9 °F 64% 29.74 in 10.0 mi SW 11.5 mph - N/A   Clear